TimeCST,TemperatureF,Dew PointF,Humidity,Sea Level PressureIn,VisibilityMPH,Wind Direction,Wind SpeedMPH,Gust SpeedMPH,PrecipitationIn,Events,Conditions,WindDirDegrees,DateUTC
12:53 AM,26.1,12.0,55,30.43,10.0,South,8.1,-,N/A,,Clear,180,2014-01-08 06:53:00
1:53 AM,26.1,12.0,55,30.43,10.0,SSW,9.2,-,N/A,,Clear,200,2014-01-08 07:53:00
2:53 AM,25.0,12.9,60,30.43,10.0,South,6.9,-,N/A,,Clear,190,2014-01-08 08:53:00
3:53 AM,25.0,12.0,58,30.43,10.0,SSW,8.1,-,N/A,,Clear,200,2014-01-08 09:53:00
4:53 AM,25.0,12.9,60,30.42,10.0,South,4.6,-,N/A,,Mostly Cloudy,190,2014-01-08 10:53:00
5:53 AM,26.1,12.9,58,30.41,10.0,SSE,5.8,-,N/A,,Partly Cloudy,150,2014-01-08 11:53:00
6:53 AM,25.0,14.0,63,30.42,10.0,SE,5.8,-,N/A,,Partly Cloudy,130,2014-01-08 12:53:00
7:53 AM,26.1,18.0,71,30.43,10.0,ESE,6.9,-,N/A,,Scattered Clouds,110,2014-01-08 13:53:00
8:53 AM,28.0,17.1,63,30.46,10.0,ESE,6.9,-,N/A,,Overcast,110,2014-01-08 14:53:00
9:53 AM,30.9,15.1,52,30.47,10.0,SSE,3.5,-,N/A,,Overcast,160,2014-01-08 15:53:00
10:53 AM,32.0,17.1,54,30.45,10.0,East,5.8,-,N/A,,Overcast,90,2014-01-08 16:53:00
11:53 AM,34.0,16.0,48,30.41,10.0,East,6.9,-,N/A,,Overcast,100,2014-01-08 17:53:00
12:53 PM,35.1,16.0,46,30.38,10.0,SE,10.4,-,N/A,,Overcast,130,2014-01-08 18:53:00
1:53 PM,36.0,19.9,52,30.35,10.0,ESE,9.2,-,0.00,Rain,Light Rain,120,2014-01-08 19:53:00
2:53 PM,36.0,19.0,50,30.34,10.0,ESE,10.4,-,0.00,,Overcast,110,2014-01-08 20:53:00
3:53 PM,35.1,23.0,61,30.35,10.0,SE,5.8,-,0.00,Rain,Light Rain,130,2014-01-08 21:53:00
4:53 PM,33.1,26.1,75,30.35,10.0,ESE,4.6,-,0.01,,Overcast,110,2014-01-08 22:53:00
5:53 PM,33.1,28.0,82,30.33,10.0,ENE,5.8,-,0.00,,Overcast,70,2014-01-08 23:53:00
6:53 PM,32.0,28.0,85,30.33,10.0,ENE,6.9,-,0.01,,Overcast,60,2014-01-09 00:53:00
7:53 PM,32.0,28.0,85,30.36,10.0,NE,5.8,-,0.03,,Overcast,40,2014-01-09 01:53:00
8:53 PM,33.1,28.0,82,30.37,10.0,NE,6.9,-,0.00,,Overcast,40,2014-01-09 02:53:00
9:53 PM,32.0,28.9,88,30.40,10.0,North,5.8,-,0.01,,Overcast,10,2014-01-09 03:53:00
10:53 PM,32.0,28.9,88,30.38,10.0,NNE,6.9,-,0.02,,Overcast,30,2014-01-09 04:53:00
11:53 PM,32.0,30.0,92,30.38,10.0,NNE,4.6,-,0.01,Rain,Light Rain,20,2014-01-09 05:53:00